"Pseudo-MPEC" for P2165ij

Created 2020 Sep 19 20:07:41 UT using Find_Orb

Click here for an explanation of pseudo-MPECs

 
 Astrometry: 
     P2165ij  C2019 05 30l^k?M8E9ZMjW9l'QJKq-]P'qnrrgdVnUAstrometryOAHt4(H$_;F51
     P2165ij  C2019 05 30KWB\GMi+St2KB*C/IS#X)DZWXb%7tbYq;l_IE36JUtGdw!BV^@6;F51
     P2165ij  C2019 06 30SSujUoRh@p^_wbb0xf?sh]JC%'Fqvy$qiYAuGaE_Fb\c$laDe42IF51
     P2165ij  C2019 06 30_UN?6tj3Mn^p'%EOgredacted;k4g-KPe=l/)Zv,?+Z9v/)/\RmSF51
     P2165ij  C2019 06 30YMxb:CQ[PfosXYV8Ub2:CK6R.yh:Guttt6hqgIi5q=GPs`_\LYQ6F51
     P2165ij  C2019 07 25e_jS7ON1#dyt,PulHl9RfS8%l[V\pL-Jc\Rt9MhHPxB@j5M0i?fHF51
     P2165ij  C2019 07 251!YG!Ot/S7E+f9!9'JCy?tF/GWxfCQEYRb/;/F^HQ)Lu((nVN##_F51
     P2165ij  C2019 07 25UC)VN(i'\R-Fm%UncWp;`vjB$^y,VlqO'(Wq/mIq9pPHdn%4/edSF51
     P2165ij  C2019 07 25.h7-O-cA%=p,F'#/tZhw16;%Ph[:Ai]2P2@n-ye#+1*cuXiUFf@]F51
     P2165ij  C2019 07 29(yS2g4bX=u.)oV6nB9S-w(V`8X_b2lNy'U_L7GV`XFT`--]$jm(pF52
     P2165ij  C2019 07 29D:/aL5]DBvq3wMsUsM/34qKl;0Ch/7Rp.+DkP@A!S(LN!S]iA.n4F52
     P2165ij  C2019 07 29I2xFU-^-WV;c`m@'HMyPyMQ,etMsh;CU:i0!'qY]fv7LC1-k^,A7F52
     P2165ij  C2019 07 29ZLCE!Krif;xZ_bclick6@YoXEEoKB'X3??.WyZTx[%p%Ff#Z%fpEF52
     P2165ij  C2019 08 05y?#ydMJ,.]sM'^U9SQ#Vi4ynony5qRSxW:,:34por%ee2^5s%-!MF51
     P2165ij  C2019 08 05aKA::mmmkJaRO@hxlmcX%%:Rs9tGEBo_5,[fng^waLuS?^1Dc'8pF51
     P2165ij  C2019 08 052/t3ds/YXyO4;2!Sc%^oDB[B`4Ve6g)/wAvk`d`L?96[NPqe8W(MF51
     P2165ij  C2019 08 05gDM,5;6xlR@BxZ,^`Kxv`pKjgvV%-8,t6ZKOp$uID=GXI_N7o4.tF51
     P2165ij  C2019 09 03$up4TWLaQcu1h$(ly+j,H?EAG]6[kd9@4NNkiv=da,BCxu(ik4k0F51
     P2165ij  C2019 09 03Z2Wqlbf,\Z0E4AR]^a66/%(wq8W]JN`pjL'67%7WU_ope+-te5r\F51
     P2165ij  C2020 07 31.42038 01 07 55.95 +21 13 10.6    ~9IBb 20.1 GVNEOCPG96
     P2165ij  C2020 07 31.42555 01 07 56.05 +21 13 12.3    ~9IBb 20.1 GVNEOCPG96
     P2165ij  C2020 07 31.43072 01 07 56.18 +21 13 14.2    ~9IBb 20.0 GVNEOCPG96
     P2165ij  C2020 07 31.43592 01 07 56.29 +21 13 15.9    ~9IBb 20.3 GVNEOCPG96
     P2165ij  C2020 08 23')s+2YV`X]AIt!Ne#_@b.k(9RXAN:24.DGdTav7\y1^'va@q$N,BF51
     P2165ij  C2020 08 23nbi7okI]SG^q!FH9(G$f)U(IL,xBlt6TNYkC$nZ2;?)qe+dG-hh6F51
     P2165ij  C2020 08 23Cp_IV7kHe[::H]s+2]h)tmI'5k=3aV\qHNs3cvMXx1Q:)\L@J/BDF51
     P2165ij  C2020 08 23VE%l7v%RS;$!Cw4-MeKM@0RlPVL!2KXb#]o0ysevJS)xoH#vdC,jF51
     P2165ij  C2020 09 036sFbt2hTkPW(yA[L,Xw`aOUdR,NP8E@)r@ElR3FCXL=S-j`?g[p/F51
     P2165ij  C2020 09 03EH;Mx.rr7D86jkJ7hhIn_VOupVfL!igOAO!:@RWjw'[@I*4baDl#F51
     P2165ij  C2020 09 03@tP)F,Lg5m=j-]j:n[7OpWx!F;j-sdIm;,m!X[6hereRZ3i%M^:?F51
     P2165ij  C2020 09 1430vfeB''3hUw7HlxpmVQ]6]JLCQd]pxGGd3iE:V3o.$rhH3s_I0WF52
     P2165ij  C2020 09 14M\YG7)y_P=Ltf*O68-bm0*ow#T32(IfaJXD#qu@CI\cSeSFs;m]EF52
     P2165ij  C2020 09 144p4i\9#W=[A,Q;OTx8-=l-jaTMap;cAPS#FFX=;Z^Gev?Rio5h`vF52
     P2165ij  C2020 09 14Bg]9)!Z3.73.kK3%d[j1cpj?5XYfT!IG^J[qXs*fkPl$UV9tKcDKF52
     P2165ij |C2020 09 15-=;eQ'tR*A6U#agvE.AuE+0_+^dH\iVS*u*eo6pk%nglD3Teb.dmH06
     P2165ij |C2020 09 15IRgU8W1la`vM0gw!mo[n9HI$dWh2Pl,3sEj^k,EAYU.V0X%7r9)PH06
     P2165ij  C2020 09 16#;riE.QR'PBfANecatqq*M)cdd[Wm1[b)$-H2_n5v41KytfMk^W?F52
     P2165ij  C2020 09 16g@]QU;yfPaI.IqA.K5wH#.MV\9)NQ:G?4^JiS#/]?XlhP3PUM#Y6F52
     P2165ij  C2020 09 16*5rDru2!nF:simvxQoVw]`d3@;syQ$4#,$wrYFrssagI_r?oI03jF52
     P2165ij  C2020 09 16LS+yR6W@9Y=1RQ1JJ*ekSJ=LsfO)ys/,$c8:@2ST8KeDPnZYrg]iF52
     P2165ij  C2020 09 16:1VCn/$@A.4aAg;3lZXHdOD:!fwjbIWd?5Z_Vhsq/:gwaGU/f[^dF52
     P2165ij  C2020 09 16u9PM^Vi8YFR[\7k%dchYPefor@Q@)=Vh(+[X2?iX4U8qF)PeFxv*F52
     P2165ij  C2020 09 16($GEZi'@%:RD].V91kn#o,l4S02):*1s+1-O8MT,ZRih/)STQ0p=F52
     P2165ij  C2020 09 164JLF-A*?:6*GeBO?)/KrQZU_h-o^afTvj'vx'qpq!q\wFUUSa;.)F52
     P2165ij  C2020 09 16ooBW\P-W]$3O)5P!K(G.Wa;rVJr9?g5P#f]^wAb1_l:uBo$=[gNBF52
     P2165ij  C2020 09 16(FRRkL_[=G:!D[=/t/$I,sJ0j+w'Z326$8P9om`/H_DeHruLB[FlF52
     P2165ij  C2020 09 16k6QC/2#MEi#(n=Q;W`c^(eV#kx87D*(OM7a*,s\d!*',E^l.U*7tF52
     P2165ij  C2020 09 16ane9-#8k+grv):5uQSQ[Z]'s*iN4OOgi\D'')Hy%Q!tAvKt',Ue3F52
     P2165ij KC2020 09 17No#V]]X3fyHD])'+(-])[$Z,Ral-Z5u7EYt#la#Hc!+G(jOiM3J+711
     P2165ij KC2020 09 17mV^.#E5]5dtZwH8Cc;k'pPNxA#hHj8.7IFFE5c4S7oQ_-N#t*rJ2711
     P2165ij KC2020 09 17JE58HZ+0qT0q4/,wD:49kMs*Vm4Nrxqjk?Jv)A*m9#yoG9]:^0nX711
     P2165ij  C2020 09 17oJK)RC**;Nu4xqr?Ue2sB2hi%K]d6Qv+UGh-EL8:3(x_r:@^hJ0,F51
     P2165ij  C2020 09 17P6CnLOj1*kS8jP*Z=33g_=aC_$Hodx+aF16jvA[PYL0c0DwW)?p:F51
     P2165ij  C2020 09 17_^b.H:nd:%*A?,kcV`jSrMrhMS\f7xt:lh$,H$j$00U1@b?li75jF51
     P2165ij  C2020 09 17q\\JVvyT#G2m%2W5g3o_xi!=6j/K`SBB5lRecQsfexplanationRF51
     P2165ij KC2020 09 18,YW7F+$oj_ktO5)u\B=Lip7R!1rTq+e5vfu[?Wt1QI4IvJFmvi=hL01
     P2165ij KC2020 09 18u?SmMJxl9uX4O:T,4?78?%a;PacPnKE!rLKq?eFwSu7-(sFy%;OAL01

Station data:
(711) McDonald Observatory, Fort Davis  (N30.671481 W104.021500)  US/Texas.
   0.76-m f/3.0 reflector.
(F51) Pan-STARRS 1, Haleakala  (N20.707235 W156.255910)  US/Hawaii.
   Observers N. Primak, A. Schultz, S. Watters, J. Thiel, T. Goggia. Measurer
   PS1 Science Consortium. 1.8-m Ritchey-Chrétien + CCD.
(F52) Pan-STARRS 2, Haleakala  (N20.707384 W156.255910)  US/Hawaii. 1.8-m
   Ritchey-Chrétien + CCD.
(G96) Mt. Lemmon Survey  (N32.442754 W110.788720)  US/Arizona.  Observers T.
   A. Pruyne, B. M. Africano, E. J. Christensen, G. A. Farneth, D. C. Fuls,
   A. R. Gibbs, A. D. Grauer, H. Gröller, J. A. Johnson, R. A. Kowalski, S.
   M. Larson, G. J. Leonard, D. Rankin, R. L. Seaman, F. C. Shelly. 1.5-m
   reflector + 10K CCD.
(H06) RAS Observatory, Mayhill  (N32.903325 W105.528700)  US/New
   Mexico.  Observers E. Guido, G. Sostero, V. Gonano, L. Donato.
(L01) Višnjan Observatory, Tičan  (N45.290900 E13.749300)  Croatia.
   Observers K. Korlević, E. Pettarin. Measurer E. Pettarin. 1.0-m f/2.9
   reflector + CCD.

Orbital elements:  P2165ij
   Perihelion 2020 May 28.217299 +/- 0.0118 TT =  5:12:54 (JD 2458997.717299)
Epoch 2020 Sep 18.0 TT = JDT 2459110.5   Ju: 0.2788           AutoNEOCP
M  10.00561123 +/- 0.0010           (J2000 ecliptic)
n   0.08871583 +/- 2.58e-6          Peri.   82.32382 +/- 0.0020
a   4.97892165 +/- 9.65e-5          Node   272.96974 +/- 0.00014
e   0.3144910 +/- 1.17e-5           Incl.   11.45435 +/- 0.000026
P  11.11                   H 15.9   G  0.15   U  4.1  
q 3.41309554 +/- 1.17e-5    Q 6.54474776 +/- 0.000185
From 57 observations 2019 May 30-2020 Sept. 18; mean residual 0".21
Residuals in arcseconds: 
190530 F51  .11+  .24-    200731 G96  .46-  .34-    200916 F52  .30+  .06-    
190530 F51  .07+  .18-    200731 G96  .42-  .34-    200916 F52  .25+  .16+    
190630 F51  .00   .10-    200731 G96  .03+  .13-    200916 F52  .11+  .16-    
190630 F51  .10+  .06-    200731 G96  .20+  .13-    200916 F52  .27+  .22+    
190630 F51  .02-  .12-    200823 F51  .27+  .03+    200916 F52  .18+  .27+    
190725 F51  .02-  .09+    200823 F51  .04+  .11+    200916 F52  .01+  .01+    
190725 F51  .08-  .10+    200823 F51  .21+  .04-    200916 F52  .12+  .16-    
190725 F51  .08+  .05-    200823 F51  .20+  .14+    200916 F52  .27+  .04+    
190725 F51  .11-  .07-    200903 F51  .11+  .23-    200916 F52  .22+  .18+    
190729 F52  .29-  .10+    200903 F51  .18-  .34-    200916 F52  .05+  .13+    
190729 F52  .04+  .09+    200903 F51  .17+  .14+    200917 711  .28-  .36+    
190729 F52  .00   .14-    200914 F52  .05+  .01-    200917 711  .09-  .07-    
190729 F52  .09-  .03-    200914 F52  .03+  .06+    200917 711  .32-  .40+    
190805 F51  .08-  .05+    200914 F52  .28+  .12+    200917 F51  .21+  .13+    
190805 F51  .09+  .13+    200914 F52  .08+  .29+    200917 F51  .23+  .16+    
190805 F51  .17-  .04-    200915 H06  .17-  .60-    200917 F51  .27+  .17+    
190805 F51  .22+  .23-    200915 H06  .33-  .18-    200917 F51  .22+  .21+    
190903 F51  .10+  .56+    200916 F52  .01-  .16-    200918 L01  .12-  .44+    
190903 F51  .00   .22+    200916 F52  .08-  .04+    200918 L01  .54-  .64-    

Ephemerides (geocentric):
Date (UTC) HH   RA              Dec         delta   r     elong  mag " sig PA
---- -- -- --  -------------   -----------  ------ ------ -----  --- ---- ---
2020 09 19 20  01 02 27.280   +23 09 10.68  2.5594 3.4647 149.8 21.2 .012 149
2020 09 19 21  01 02 26.020   +23 09 06.98  2.5592 3.4648 149.9 21.2 .012 149
2020 09 19 22  01 02 24.759   +23 09 03.25  2.5590 3.4648 149.9 21.2 .012 149
2020 09 19 23  01 02 23.496   +23 08 59.51  2.5588 3.4649 150.0 21.2 .012 148
2020 09 20 00  01 02 22.233   +23 08 55.75  2.5586 3.4649 150.0 21.2 .012 148
2020 09 20 01  01 02 20.969   +23 08 51.98  2.5584 3.4649 150.0 21.2 .012 148
2020 09 20 02  01 02 19.703   +23 08 48.19  2.5582 3.4650 150.1 21.2 .012 147
2020 09 20 03  01 02 18.437   +23 08 44.38  2.5580 3.4650 150.1 21.2 .012 147
2020 09 20 04  01 02 17.169   +23 08 40.55  2.5578 3.4650 150.1 21.2 .012 147
2020 09 20 05  01 02 15.900   +23 08 36.71  2.5576 3.4651 150.2 21.2 .012 146
2020 09 20 06  01 02 14.630   +23 08 32.85  2.5574 3.4651 150.2 21.2 .012 146
2020 09 20 07  01 02 13.360   +23 08 28.97  2.5572 3.4652 150.3 21.2 .012 146
2020 09 20 08  01 02 12.088   +23 08 25.08  2.5570 3.4652 150.3 21.2 .012 145
2020 09 20 09  01 02 10.815   +23 08 21.17  2.5568 3.4652 150.3 21.2 .012 145
2020 09 20 10  01 02 09.541   +23 08 17.24  2.5566 3.4653 150.4 21.2 .012 145
2020 09 20 11  01 02 08.265   +23 08 13.30  2.5564 3.4653 150.4 21.2 .012 144
2020 09 20 12  01 02 06.989   +23 08 09.34  2.5562 3.4653 150.5 21.2 .012 144
2020 09 20 13  01 02 05.712   +23 08 05.36  2.5560 3.4654 150.5 21.2 .013 144
2020 09 20 14  01 02 04.434   +23 08 01.36  2.5558 3.4654 150.5 21.2 .013 144
2020 09 20 15  01 02 03.155   +23 07 57.35  2.5556 3.4654 150.6 21.2 .013 143
2020 09 20 16  01 02 01.874   +23 07 53.32  2.5554 3.4655 150.6 21.2 .013 143
2020 09 20 17  01 02 00.593   +23 07 49.28  2.5552 3.4655 150.6 21.2 .013 143
2020 09 20 18  01 01 59.310   +23 07 45.22  2.5550 3.4656 150.7 21.2 .013 142
2020 09 20 19  01 01 58.027   +23 07 41.14  2.5548 3.4656 150.7 21.2 .013 142
2020 09 20 20  01 01 56.742   +23 07 37.04  2.5546 3.4656 150.8 21.2 .013 142
2020 09 20 21  01 01 55.457   +23 07 32.93  2.5544 3.4657 150.8 21.2 .013 141
2020 09 20 22  01 01 54.170   +23 07 28.80  2.5542 3.4657 150.8 21.2 .013 141
2020 09 20 23  01 01 52.883   +23 07 24.65  2.5540 3.4657 150.9 21.2 .013 141
2020 09 21 00  01 01 51.594   +23 07 20.49  2.5538 3.4658 150.9 21.2 .013 141
2020 09 21 01  01 01 50.305   +23 07 16.30  2.5536 3.4658 151.0 21.2 .013 140
2020 09 21 02  01 01 49.014   +23 07 12.11  2.5534 3.4659 151.0 21.2 .013 140
2020 09 21 03  01 01 47.722   +23 07 07.89  2.5532 3.4659 151.0 21.2 .013 140
2020 09 21 04  01 01 46.430   +23 07 03.66  2.5530 3.4659 151.1 21.2 .013 139
2020 09 21 05  01 01 45.136   +23 06 59.41  2.5529 3.4660 151.1 21.2 .013 139
2020 09 21 06  01 01 43.841   +23 06 55.15  2.5527 3.4660 151.1 21.2 .013 139
2020 09 21 07  01 01 42.546   +23 06 50.87  2.5525 3.4660 151.2 21.2 .013 139
2020 09 21 08  01 01 41.249   +23 06 46.57  2.5523 3.4661 151.2 21.2 .014 138
2020 09 21 09  01 01 39.951   +23 06 42.25  2.5521 3.4661 151.3 21.2 .014 138
2020 09 21 10  01 01 38.652   +23 06 37.92  2.5519 3.4662 151.3 21.2 .014 138
2020 09 21 11  01 01 37.353   +23 06 33.57  2.5517 3.4662 151.3 21.2 .014 137
2020 09 21 12  01 01 36.052   +23 06 29.21  2.5515 3.4662 151.4 21.2 .014 137
2020 09 21 13  01 01 34.750   +23 06 24.83  2.5513 3.4663 151.4 21.2 .014 137
2020 09 21 14  01 01 33.448   +23 06 20.43  2.5512 3.4663 151.4 21.2 .014 137
2020 09 21 15  01 01 32.144   +23 06 16.01  2.5510 3.4663 151.5 21.2 .014 136
2020 09 21 16  01 01 30.839   +23 06 11.58  2.5508 3.4664 151.5 21.2 .014 136
2020 09 21 17  01 01 29.534   +23 06 07.13  2.5506 3.4664 151.6 21.2 .014 136
2020 09 21 18  01 01 28.227   +23 06 02.66  2.5504 3.4665 151.6 21.2 .014 136
2020 09 21 19  01 01 26.920   +23 05 58.18  2.5502 3.4665 151.6 21.2 .014 135